Dewpoint
4 3 2 3 3 2 2 3 2 2 2 2 1 1 0 -0 -0 -0 -0 -0 1 -0 1 -1 -0 -1 -0 1 1 2 5 5 7 7 5 4 2 5 6 5 3 3 0 -0 1 3 2
2 1 1 2 2 2 3 2 2 2 1 1 1 0 -0 -1 -1 -1 0 -1 -0 1 0 -0 -0 -1 1 0 -2 -1 -0 6 8 8 4 4 3 4 4 4 3 2 1 1 1 3 3
-1 -2 -0 2 1 1 2 3 2 1 2 2 1 2 1 0 -2 -1 -1 0 0 0 0 0 -1 1 1 -1 -1 4 -0 5 6 8 4 4 3 4 3 4 4 2 3 2 1 1 1
-2 -4 -1 2 2 2 2 3 1 2 2 2 1 2 2 1 -2 -2 1 -0 1 -1 -1 0 -0 1 1 -1 -1 0 2 3 6 7 5 4 5 5 5 3 4 4 3 5 1 1 0
-6 -5 -3 1 1 2 2 2 1 1 2 2 2 1 0 1 1 0 -2 -2 -1 -2 -4 -3 2 1 -1 0 -1 1 3 4 5 7 5 4 7 6 5 5 5 3 3 2 0 -0 1
-8 -6 -3 0 2 1 2 1 1 1 2 1 3 0 -2 -1 1 1 -2 -2 -3 -2 1 2 2 1 -1 -1 -0 3 5 5 6 6 4 5 7 6 5 4 6 3 2 -1 -1 2 0
-8 -7 -4 -0 1 1 2 1 1 1 1 0 2 0 -1 -3 -2 1 -1 -0 0 1 0 -1 -0 -0 0 0 2 5 2 3 7 5 4 5 7 7 4 2 -2 -3 -0 -2 -3 1 1
-8 -7 -7 -1 0 0 2 1 1 1 1 1 0 1 -0 1 1 1 1 -1 -0 1 -2 -1 -1 1 1 2 4 4 3 6 7 5 2 6 7 5 1 0 -0 -0 0 0 1 -0 0
-8 -7 -8 -1 -1 -3 -1 1 0 1 2 1 1 -2 -1 -2 -2 1 1 1 0 1 1 1 1 1 2 4 4 4 5 5 6 2 4 6 6 5 6 3 2 -0 0 -0 1 1 0
-9 -6 -8 -9 -7 -11 -12 -3 -3 0 1 -3 -2 -3 -5 -3 0 1 1 -1 -2 -1 4 3 2 3 4 4 3 5 4 4 5 4 3 5 5 6 6 5 2 2 -1 -2 2 2 0
-11 -6 -8 -12 -14 -21 -23 -20 -7 -3 1 -3 -3 -2 -3 -7 0 1 -2 -3 -1 1 4 3 4 3 4 4 4 4 5 6 5 5 5 6 6 6 7 6 1 4 2 2 3 3 3
-13 -6 -8 -10 -15 -23 -27 -32 -13 -6 -2 -3 -3 -2 -2 1 1 -2 -1 -1 2 4 5 4 3 3 4 4 5 4 5 4 3 4 3 4 4 5 6 4 3 3 3 2 2 3 7
-14 -6 -7 -8 -9 -17 -27 -32 -23 -7 -3 -2 -2 -2 0 1 1 0 1 1 5 5 3 5 5 4 4 6 5 5 5 6 6 6 6 4 4 3 4 5 3 2 5 8 9 8 6
-14 -7 -7 -7 -8 -12 -24 -29 -31 -8 -2 -2 -2 0 1 1 1 1 3 4 6 4 5 4 4 3 5 2 4 4 3 5 3 4 7 8 7 4 4 5 6 5 5 8 7 5 3
-14 -8 -7 -8 -7 -9 -17 -27 -32 -13 -3 -3 -2 -0 2 2 0 0 3 5 5 5 4 4 3 2 2 3 4 3 2 2 2 1 6 7 7 4 3 1 4 6 7 0 2 -0 1
-15 -10 -7 -8 -7 -8 -14 -27 -30 -23 -3 -2 -2 -0 2 0 1 3 4 4 4 3 2 0 2 2 2 2 3 2 2 1 1 -1 -2 2 6 3 1 -0 -1 1 -0 4 6 5 0
-15 -12 -7 -8 -6 -8 -12 -24 -29 -31 -4 -3 1 3 -0 -0 3 3 5 5 2 1 1 1 1 1 0 2 1 1 2 1 -1 -1 -2 0 2 4 1 3 3 1 2 1 -0 -1 2
-16 -16 -9 -9 -7 -8 -12 -21 -28 -30 -8 -3 1 4 0 -1 4 3 5 3 3 1 0 -0 -0 -0 -0 -0 1 1 1 1 -1 -2 -0 0 3 5 3 0 -1 -0 1 -0 2 2 1
-19 -17 -11 -8 -7 -7 -8 -18 -27 -30 -9 -2 2 2 -0 1 5 5 3 2 2 0 -1 -1 -0 -0 -0 0 2 0 0 0 -1 -1 -1 -1 3 4 3 2 0 2 1 -0 -1 2 6
-19 -18 -11 -8 -6 -7 -7 -10 -23 -28 -17 -1 2 4 3 2 3 2 1 1 1 1 -0 -1 -1 -1 -0 0 -1 1 1 1 -0 -0 -2 -2 0 2 2 4 2 4 2 0 4 6 1
-19 -19 -14 -8 -6 -6 -7 -7 -12 -26 -18 -1 1 2 2 4 2 2 1 1 1 1 0 -1 -1 -1 -1 0 -0 -0 0 1 0 -0 -1 -1 2 1 -0 -0 1 2 2 2 4 3 7
-17 -20 -17 -10 -6 -6 -7 -7 -9 -23 -24 1 2 1 2 2 1 1 2 1 2 1 2 -0 -0 -1 -2 -1 -2 -0 -0 -1 -1 -0 -1 -1 5 3 4 0 1 3 1 1 2 2 1
-14 -19 -18 -12 -8 -5 -7 -7 -8 -18 -25 -0 0 1 2 1 1 1 1 1 1 2 2 1 -1 -1 -0 0 1 -0 -1 -2 -2 -1 -0 0 3 4 2 0 1 4 2 1 1 0 1
-5 -13 -16 -15 -11 -5 -6 -6 -8 -12 -18 -9 -2 0 1 1 1 1 1 1 2 2 2 1 2 1 1 0 -0 -1 -1 -1 -1 -1 -1 1 1 3 3 2 5 2 -1 -1 0 -0 -1
2 -1 -9 -16 -11 -6 -6 -6 -6 -8 -12 -9 -7 0 1 -0 -1 -1 0 1 2 2 2 2 3 2 1 1 1 1 1 1 1 0 -1 -1 -0 3 4 2 -0 -2 -0 0 2 3 -1
4 2 -4 -13 -11 -6 -5 -6 -5 -6 -6 -6 -10 -6 0 -1 -2 -0 0 2 3 2 3 2 4 3 2 2 1 2 2 1 2 2 -0 -0 -0 2 3 4 3 3 1 -0 -1 6 2
4 3 2 -10 -11 -5 -4 -4 -4 -3 -4 -5 -3 -7 -2 -1 -4 -1 -1 2 2 2 3 2 3 3 2 2 3 3 2 -0 2 1 2 2 3 4 3 3 1 -3 1 -1 6 6 2
4 3 2 -4 -8 -4 -3 -3 -5 -3 -3 -4 -2 -4 -3 -4 -4 -4 -2 -1 2 3 3 3 3 3 3 3 2 1 1 0 1 -1 0 2 2 2 1 3 3 -3 1 2 4 2 1
2 2 2 1 -3 -4 -2 -2 -3 -6 -2 -3 -2 -2 -3 -2 -4 -3 -7 -10 -7 -0 0 3 2 1 0 2 0 0 1 2 0 2 -0 1 -1 0 -0 -0 -3 -1 1 0 1 2 2
Wind_Speed
18 22 24 24 26 28 27 28 29 30 28 26 27 26 24 22 19 17 16 14 13 13 12 11 9 10 7 14 21 6 9 23 26 27 28 23 30 29 18 20 19 16 10 15 6 9 12
21 25 26 25 27 29 28 29 30 28 27 30 28 27 24 22 20 17 13 14 12 12 13 10 8 7 9 18 12 14 20 12 27 30 29 28 29 29 16 13 18 15 15 12 12 12 9
22 24 26 26 27 28 30 29 31 28 30 30 28 26 25 22 20 15 15 15 14 11 13 10 9 8 14 21 5 7 23 11 7 30 31 29 24 27 11 10 15 3 17 7 16 15 7
21 25 28 26 27 28 28 27 31 28 29 29 33 32 25 20 16 14 12 13 11 10 11 10 10 10 11 13 21 20 15 22 5 29 27 25 23 20 10 9 15 13 11 15 16 13 15
23 26 28 27 27 28 29 28 29 27 29 32 32 29 23 19 15 13 8 10 7 8 7 9 10 10 10 5 20 16 17 18 9 24 24 23 16 15 18 13 11 14 13 17 13 25 10
23 26 28 26 26 27 27 26 26 27 30 32 32 27 24 18 14 13 9 8 6 2 4 5 2 6 10 10 13 12 16 16 13 33 27 20 12 10 12 14 13 19 21 19 18 11 20
23 26 28 27 27 27 27 24 26 25 29 32 31 28 26 20 9 5 3 3 1 2 5 4 3 9 7 3 12 12 16 14 15 20 14 23 7 17 26 23 18 16 17 12 14 9 11
21 25 29 27 27 27 25 25 25 24 26 29 33 27 23 20 17 11 7 2 2 2 3 3 7 8 10 4 4 15 17 17 14 20 16 10 12 13 18 18 12 9 16 13 3 9 9
20 24 28 26 26 27 25 24 23 24 24 25 28 27 16 17 16 14 9 4 2 4 2 5 7 6 6 8 7 8 6 7 11 23 18 13 4 12 16 15 13 12 14 16 6 7 10
19 23 27 28 27 29 29 24 23 23 23 21 22 24 20 6 6 7 7 4 3 3 2 8 5 4 6 5 6 7 5 6 7 22 17 7 3 13 9 17 14 12 7 9 8 11 6
18 21 26 29 29 30 32 26 24 22 22 17 17 16 16 14 4 6 5 4 1 5 4 7 7 6 6 6 6 9 5 11 11 10 5 3 5 16 16 15 15 3 9 10 8 8 1
18 20 24 28 30 30 31 29 23 24 21 18 14 13 10 9 7 7 8 5 4 3 9 5 6 5 4 1 4 5 6 16 11 9 13 4 5 6 2 9 6 10 12 8 4 2 4
17 19 23 26 29 30 30 30 24 23 22 18 15 9 9 8 6 10 7 2 2 6 2 6 3 2 4 4 4 6 9 6 5 4 2 2 3 6 1 11 5 4 13 4 4 4 4
17 18 21 24 29 31 30 30 27 24 24 19 10 9 11 9 10 9 4 3 9 6 6 3 3 10 4 2 6 5 9 8 10 9 3 2 3 3 3 3 4 7 3 3 5 7 7
16 17 20 23 27 30 30 31 32 24 24 22 6 9 11 12 10 7 4 7 3 1 4 2 3 6 4 7 4 2 10 5 5 2 1 4 3 2 2 2 8 4 4 2 2 2 2
15 15 19 22 25 30 30 30 31 26 24 20 6 5 7 13 10 7 4 5 2 2 5 4 3 4 2 4 2 2 4 2 3 2 7 4 6 6 5 4 4 1 6 3 2 3 5
15 14 18 20 24 29 30 29 30 29 23 14 7 2 11 9 10 7 3 4 1 3 3 4 3 1 3 3 1 3 3 2 1 2 1 5 3 5 5 4 6 3 2 2 3 3 3
15 14 16 20 22 28 28 28 28 30 25 14 6 2 11 6 3 4 2 2 3 4 2 1 1 3 3 1 4 2 3 4 2 1 2 4 5 4 3 2 4 6 6 8 3 5 1
15 15 15 18 21 24 27 27 27 27 23 19 9 5 8 4 2 3 2 3 1 4 4 2 1 2 2 3 1 1 2 2 3 3 2 4 4 4 2 2 3 5 8 6 1 3 3
15 16 15 16 19 22 25 25 26 24 20 13 6 3 4 4 3 1 1 0 2 1 1 1 2 2 5 4 1 3 3 2 1 3 4 1 2 3 3 4 3 4 10 10 5 2 4
14 15 14 14 17 19 23 23 24 23 20 9 5 3 3 2 2 3 2 2 4 2 2 2 3 4 5 4 3 2 2 6 4 3 2 2 3 1 1 1 2 4 7 13 8 8 4
13 15 15 14 16 18 20 22 21 21 18 5 4 4 6 7 4 5 2 1 4 1 3 3 5 5 5 3 1 3 5 4 3 5 3 1 2 1 2 2 6 8 10 9 13 14 14
13 14 16 15 16 17 18 20 20 18 16 6 6 4 3 6 4 3 1 1 1 2 2 4 1 4 5 1 1 1 1 1 0 3 7 4 4 1 1 1 5 9 16 16 10 8 14
13 14 15 16 15 15 16 17 18 19 16 9 6 5 4 3 4 4 5 6 7 5 4 1 4 5 2 6 7 7 7 5 5 3 4 4 4 1 2 2 3 2 3 3 17 9 14
14 14 14 15 15 14 14 14 15 16 14 9 7 4 4 4 6 11 10 6 8 6 7 4 2 1 8 3 4 5 3 3 3 2 3 3 4 2 3 4 9 6 4 4 7 5 16
18 18 13 14 15 14 14 13 12 12 12 9 7 6 5 8 0 5 8 7 6 7 5 4 3 7 3 3 3 4 4 3 4 4 2 3 2 3 2 3 3 4 4 2 4 3 4
20 21 17 14 14 14 14 14 12 11 11 9 7 7 4 8 9 5 4 5 4 4 4 4 6 6 4 4 3 2 3 2 5 5 6 5 4 8 6 4 6 5 7 1 3 4 5
22 22 21 16 16 15 16 17 12 10 9 10 8 9 4 8 17 12 10 11 11 8 3 3 4 5 6 5 3 3 5 5 4 4 6 8 6 4 5 4 7 4 4 4 4 3 3
21 23 23 16 17 17 17 13 13 11 12 9 10 12 11 11 14 16 22 24 22 22 10 5 2 2 10 5 4 2 3 1 6 3 8 5 6 3 7 4 3 3 2 2 2 5 8
Wind_Direction
353 347 350 349 343 344 344 336 336 331 332 329 325 324 321 316 311 306 295 297 297 294 279 276 266 257 249 235 242 268 183 196 210 198 197 200 196 198 203 203 204 215 210 215 177 175 199
354 354 353 351 346 346 345 346 342 338 335 332 328 328 322 319 311 311 301 299 296 287 287 286 264 245 234 249 248 255 248 182 195 190 192 194 202 197 210 210 207 201 221 207 200 177 176
358 355 354 348 346 350 345 340 341 339 334 336 332 323 322 320 308 302 299 297 293 285 274 277 256 246 235 237 260 251 230 208 198 190 191 195 202 201 205 190 199 196 209 158 211 201 194
354 359 355 349 350 349 346 348 339 342 340 336 331 325 315 312 311 306 290 315 276 283 276 274 260 249 250 251 244 251 261 229 194 195 188 188 201 212 222 186 173 210 203 211 215 214 222
357 2 355 353 352 350 347 352 349 348 345 344 345 345 336 313 309 293 297 323 303 291 293 272 246 214 254 269 223 228 228 224 213 181 176 183 202 204 208 180 178 195 207 207 197 199 193
360 2 355 353 351 353 353 353 355 348 350 349 344 350 348 326 308 296 273 329 319 10 80 112 165 206 248 241 201 209 211 193 208 172 162 180 197 192 213 195 197 196 213 199 208 191 216
0 1 355 353 352 352 353 357 355 354 354 355 353 356 355 343 320 293 241 356 219 158 211 276 329 262 318 216 176 181 192 204 198 162 157 183 176 192 202 208 217 228 202 223 208 145 203
1 1 356 355 352 352 351 356 356 357 358 2 3 2 14 34 55 80 89 66 358 319 287 289 306 282 284 262 241 154 172 197 169 173 169 174 197 214 201 211 212 250 185 188 144 159 212
359 360 356 354 353 354 353 355 356 356 358 4 7 8 21 47 70 75 77 60 35 353 301 20 338 330 302 288 124 116 171 168 175 172 181 181 230 204 231 194 191 205 196 186 192 173 229
357 360 356 355 355 357 356 351 357 354 355 4 15 17 17 38 43 51 39 35 81 15 253 8 24 38 357 329 58 27 80 134 193 169 180 189 122 182 212 200 183 198 207 175 159 177 214
355 359 358 356 357 0 358 356 349 349 352 357 10 18 16 37 46 46 49 62 6 343 71 343 342 349 18 39 129 53 326 200 117 120 153 88 193 193 217 184 195 139 157 168 181 212 270
353 358 358 358 359 360 1 357 348 344 347 344 354 6 12 346 16 17 357 319 327 261 48 3 329 341 24 1 70 50 57 65 85 66 51 30 1 353 32 41 118 144 133 132 136 183 239
350 357 357 358 358 359 359 358 350 344 340 342 347 350 14 3 327 338 336 350 243 30 192 352 347 322 63 92 91 101 74 77 115 125 107 352 22 310 346 90 35 212 164 136 175 191 234
347 356 356 357 358 357 356 358 353 348 341 344 359 11 8 347 343 352 335 242 52 352 27 205 295 80 69 65 43 86 133 101 69 83 120 120 115 7 313 105 145 166 209 248 193 190 174
345 352 355 356 356 356 357 356 355 349 345 342 13 14 10 340 357 27 312 52 36 313 270 302 257 96 88 78 109 109 75 89 122 175 44 143 84 22 152 169 137 166 224 29 339 33 214
341 349 354 354 354 357 356 356 356 351 348 344 1 12 350 356 29 50 35 85 84 193 318 307 356 317 102 99 104 105 39 45 104 40 283 102 106 126 131 192 75 326 132 165 172 203 224
333 346 351 353 355 356 357 355 356 352 353 349 358 345 352 357 41 58 55 48 72 2 323 328 354 202 113 154 228 70 59 79 5 62 74 124 97 148 165 206 190 152 184 242 306 288 293
325 342 349 350 357 356 359 356 357 356 353 356 352 335 349 4 31 53 89 191 317 341 349 58 37 43 178 147 184 125 107 62 75 295 87 30 92 150 162 79 324 312 244 224 257 165 34
321 336 347 346 355 359 358 357 356 359 354 354 324 304 350 68 74 57 128 134 293 19 27 12 113 358 227 158 194 286 66 51 68 7 78 161 141 133 183 216 199 225 221 238 233 8 215
316 330 339 342 348 357 358 354 355 357 358 351 320 312 343 44 75 328 221 198 183 162 7 27 115 186 167 183 296 159 139 98 57 62 42 317 167 293 341 63 85 196 212 205 170 183 201
308 322 325 335 340 351 355 354 352 355 358 7 353 2 339 336 84 333 280 288 271 243 246 238 169 247 200 188 191 187 155 153 167 159 187 279 185 231 333 40 199 234 214 206 203 217 221
308 313 318 326 334 343 351 353 352 352 1 24 9 350 327 284 297 288 177 196 279 264 285 209 261 178 200 238 307 177 189 216 204 186 207 148 123 89 246 229 248 255 243 225 221 232 245
308 310 315 318 329 334 347 352 349 353 3 24 352 335 310 301 294 260 290 298 226 319 158 280 308 213 216 112 94 24 116 72 63 192 202 197 152 193 250 227 280 262 234 216 210 214 218
313 309 309 313 321 329 337 349 349 355 2 4 356 341 306 282 282 279 328 315 275 258 281 238 287 276 93 118 119 121 117 114 122 131 206 186 154 151 298 262 244 79 87 203 218 219 219
322 319 312 307 311 318 328 341 346 345 355 359 337 338 308 283 296 283 264 271 282 257 232 224 189 41 147 181 152 161 169 181 134 80 175 277 167 184 257 239 297 232 191 180 170 225 224
310 324 311 297 303 309 317 322 326 324 338 347 339 305 302 299 16 310 295 281 273 246 192 192 148 154 169 237 192 218 209 202 177 164 145 142 273 239 82 272 265 57 127 197 208 151 107
295 305 307 292 297 298 307 307 304 313 327 329 313 323 284 278 280 264 253 311 311 283 290 148 171 183 195 225 238 234 226 215 200 201 176 178 195 224 227 264 295 130 134 18 235 104 96
284 292 298 296 292 285 298 298 279 287 304 316 287 306 288 272 278 262 257 263 291 256 261 105 159 206 188 224 216 206 245 203 220 210 187 187 189 200 209 225 253 133 139 227 58 85 17
284 290 290 280 281 281 300 284 289 268 270 288 278 283 293 262 266 273 269 266 253 256 272 269 298 203 208 219 219 234 206 175 232 242 197 211 216 188 211 215 96 157 357 38 353 353 343
Height
1532 1528 1523 1518 1514 1509 1504 1501 1495 1490 1485 1480 1475 1470 1466 1463 1460 1458 1457 1456 1456 1455 1455 1455 1455 1456 1458 1459 1452 1453 1453 1456 1463 1467 1473 1479 1481 1484 1483 1484 1487 1487 1484 1488 1492 1496 1497
1530 1526 1521 1517 1513 1507 1503 1499 1495 1489 1483 1478 1472 1467 1462 1459 1456 1455 1453 1453 1452 1453 1452 1452 1453 1455 1457 1453 1450 1453 1452 1453 1458 1463 1469 1474 1475 1481 1481 1482 1483 1485 1486 1490 1492 1497 1499
1529 1524 1519 1516 1510 1506 1501 1497 1491 1487 1481 1475 1469 1463 1458 1455 1452 1451 1450 1450 1450 1449 1450 1450 1451 1452 1453 1447 1448 1447 1448 1451 1455 1459 1464 1472 1476 1480 1479 1482 1485 1486 1487 1491 1491 1493 1496
1528 1523 1518 1514 1510 1505 1499 1494 1489 1484 1479 1474 1466 1459 1453 1450 1448 1447 1446 1446 1446 1446 1446 1447 1448 1450 1446 1444 1445 1446 1446 1447 1451 1455 1465 1471 1477 1478 1480 1481 1485 1487 1486 1490 1489 1492 1493
1527 1523 1518 1514 1509 1503 1497 1492 1488 1483 1476 1470 1463 1455 1450 1446 1444 1443 1443 1443 1444 1443 1444 1444 1446 1447 1443 1440 1440 1443 1445 1447 1451 1453 1463 1472 1477 1477 1479 1480 1483 1482 1482 1482 1481 1485 1490
1527 1523 1518 1513 1508 1502 1497 1492 1487 1481 1475 1468 1462 1453 1446 1441 1439 1440 1441 1443 1442 1442 1443 1444 1445 1448 1440 1438 1438 1440 1438 1446 1448 1454 1462 1471 1475 1475 1476 1471 1476 1472 1477 1471 1475 1483 1485
1527 1523 1518 1513 1509 1502 1497 1492 1486 1480 1475 1468 1461 1453 1445 1438 1435 1437 1440 1443 1446 1446 1444 1442 1443 1441 1438 1437 1438 1440 1441 1445 1445 1441 1449 1466 1472 1470 1465 1463 1461 1460 1469 1468 1470 1478 1483
1527 1522 1517 1512 1507 1500 1494 1489 1484 1479 1474 1468 1462 1455 1448 1442 1438 1438 1442 1444 1445 1447 1442 1442 1441 1440 1440 1440 1439 1442 1447 1448 1445 1448 1455 1468 1464 1466 1463 1464 1463 1463 1464 1472 1475 1479 1485
1527 1522 1516 1511 1505 1499 1493 1488 1483 1479 1473 1468 1463 1458 1453 1448 1444 1445 1445 1445 1444 1445 1444 1443 1441 1440 1438 1432 1432 1440 1445 1444 1444 1447 1454 1460 1464 1469 1467 1464 1467 1465 1466 1468 1476 1483 1484
1525 1522 1516 1510 1505 1500 1494 1488 1483 1479 1474 1468 1464 1460 1456 1451 1452 1449 1449 1446 1446 1446 1441 1445 1444 1443 1441 1437 1440 1443 1444 1449 1446 1448 1454 1462 1465 1469 1468 1466 1465 1467 1463 1465 1478 1483 1482
1525 1521 1516 1510 1506 1500 1495 1489 1485 1479 1474 1469 1465 1461 1460 1454 1453 1452 1452 1448 1446 1447 1428 1453 1444 1444 1442 1442 1447 1444 1446 1447 1447 1455 1459 1470 1465 1468 1466 1465 1462 1470 1469 1473 1476 1478 1479
1524 1521 1516 1511 1506 1501 1495 1489 1481 1479 1473 1469 1465 1462 1459 1458 1455 1454 1452 1450 1451 1446 1439 1454 1451 1445 1445 1444 1446 1448 1445 1445 1454 1460 1469 1477 1475 1473 1471 1471 1466 1472 1475 1479 1479 1481 1486
1523 1520 1516 1511 1505 1499 1494 1487 1482 1475 1470 1466 1463 1461 1458 1458 1457 1453 1451 1451 1445 1441 1463 1459 1453 1449 1443 1443 1448 1448 1448 1452 1458 1466 1471 1480 1480 1479 1476 1476 1478 1474 1473 1487 1491 1490 1475
1522 1520 1515 1510 1505 1498 1494 1486 1481 1477 1471 1465 1461 1460 1458 1457 1454 1451 1451 1450 1444 1458 1458 1461 1454 1448 1449 1443 1453 1449 1449 1454 1455 1459 1467 1466 1472 1482 1478 1478 1479 1475 1475 1469 1469 1463 1463
1521 1518 1515 1511 1504 1498 1494 1489 1483 1476 1472 1466 1461 1459 1457 1457 1453 1450 1453 1454 1464 1466 1464 1455 1449 1447 1446 1445 1450 1446 1448 1452 1456 1458 1461 1461 1471 1477 1475 1475 1478 1487 1484 1474 1473 1471 1466
1518 1516 1514 1510 1505 1499 1494 1490 1483 1477 1472 1468 1463 1459 1459 1457 1453 1453 1454 1461 1462 1463 1458 1453 1448 1447 1444 1447 1446 1443 1446 1454 1455 1455 1454 1455 1469 1474 1474 1473 1473 1469 1471 1476 1480 1477 1463
1517 1517 1513 1509 1506 1499 1494 1490 1484 1478 1473 1467 1466 1463 1460 1458 1456 1458 1464 1463 1461 1460 1459 1455 1450 1447 1447 1449 1446 1447 1452 1456 1454 1456 1453 1452 1457 1474 1473 1471 1468 1473 1472 1473 1471 1469 1458
1515 1514 1512 1509 1505 1500 1494 1490 1486 1481 1476 1472 1468 1465 1462 1459 1462 1463 1466 1466 1464 1459 1458 1456 1453 1451 1448 1450 1449 1449 1450 1453 1459 1456 1453 1457 1463 1469 1469 1472 1472 1467 1464 1465 1467 1466 1471
1514 1511 1510 1510 1505 1501 1495 1491 1487 1482 1476 1473 1473 1468 1463 1460 1462 1462 1463 1461 1462 1458 1457 1455 1454 1454 1454 1452 1454 1452 1454 1460 1459 1456 1454 1458 1465 1473 1473 1474 1472 1473 1469 1469 1471 1474 1479
1513 1510 1508 1508 1506 1500 1496 1491 1487 1482 1478 1476 1477 1469 1465 1464 1464 1461 1460 1460 1458 1460 1458 1457 1455 1455 1453 1453 1453 1455 1455 1460 1461 1461 1462 1461 1460 1459 1454 1461 1461 1471 1467 1470 1480 1479 1465
1511 1509 1507 1505 1503 1500 1494 1491 1487 1485 1481 1479 1480 1477 1475 1463 1462 1463 1462 1461 1458 1457 1458 1456 1455 1453 1451 1452 1453 1454 1456 1460 1463 1463 1463 1461 1463 1464 1464 1465 1466 1468 1469 1470 1480 1472 1472
1509 1507 1505 1503 1503 1499 1496 1492 1486 1485 1481 1480 1478 1479 1477 1470 1466 1464 1462 1458 1459 1458 1460 1454 1453 1453 1452 1450 1450 1452 1455 1455 1455 1461 1460 1462 1472 1475 1473 1468 1469 1470 1465 1465 1469 1470 1466
1507 1505 1503 1502 1501 1498 1495 1493 1488 1484 1483 1484 1485 1481 1480 1469 1464 1462 1456 1457 1458 1460 1459 1458 1455 1453 1453 1455 1456 1457 1456 1456 1456 1458 1460 1462 1469 1470 1461 1468 1467 1464 1456 1458 1460 1460 1462
1505 1504 1502 1501 1499 1497 1494 1491 1491 1489 1487 1487 1487 1486 1482 1468 1467 1460 1463 1463 1460 1459 1458 1458 1459 1456 1460 1459 1458 1458 1458 1459 1459 1460 1460 1461 1465 1467 1463 1466 1462 1449 1449 1449 1452 1453 1456
1503 1502 1499 1497 1497 1495 1494 1492 1491 1490 1486 1488 1489 1488 1484 1475 1469 1466 1464 1462 1460 1459 1459 1457 1459 1460 1460 1461 1458 1458 1459 1459 1461 1461 1461 1461 1461 1465 1464 1455 1444 1439 1449 1451 1450 1448 1449
1500 1500 1497 1496 1494 1493 1492 1491 1488 1485 1484 1484 1485 1488 1488 1482 1467 1469 1466 1463 1460 1455 1457 1457 1458 1459 1461 1459 1457 1457 1456 1454 1458 1462 1464 1463 1463 1465 1469 1466 1450 1443 1446 1447 1448 1446 1447
1496 1495 1493 1492 1491 1491 1490 1487 1487 1487 1484 1485 1482 1482 1485 1483 1470 1468 1466 1463 1461 1459 1456 1455 1458 1459 1460 1456 1455 1456 1451 1451 1454 1454 1458 1461 1464 1465 1463 1464 1448 1441 1447 1449 1450 1453 1448
1491 1490 1490 1490 1488 1485 1487 1487 1483 1484 1482 1482 1484 1482 1481 1480 1470 1466 1465 1464 1462 1460 1455 1455 1458 1456 1456 1456 1454 1453 1449 1448 1449 1445 1449 1454 1456 1459 1459 1465 1459 1446 1449 1448 1449 1449 1450
1487 1487 1485 1483 1482 1481 1480 1481 1485 1482 1481 1479 1478 1479 1478 1477 1468 1461 1458 1458 1458 1460 1462 1455 1452 1449 1449 1448 1446 1446 1446 1450 1445 1447 1448 1450 1444 1446 1451 1447 1443 1445 1446 1447 1447 1448 1449